When you browse on this site, cookies collect data to enhance your experience and personalize the content and advertising you see.
Visit our Privacy Policy to learn more. By continuing to use the site, you agree to this use of cookies and data.
  • In Schweiz
  • Länderverzeichnis
  • Für 7 Tage
  • Wassertemperatur
  • Wetterkarte
  • Widgets
  • user-avatar
    Anmelden

    Stündliche Wetter Zhemchuzhnikovo

    Heute, 26 August, Montag

    Zeit Temperatur Niederschläge Wind Luftdruck Luftfeuchtigkeit
    00:00 +13°C° 0 mm 2 m/S 751 mmHg 91%
    01:00 +12°C° 0 mm 2 m/S 752 mmHg 92%
    02:00 +12°C° 0 mm 2 m/S 752 mmHg 94%
    03:00 +12°C° 0 mm 1 m/S 752 mmHg 93%
    04:00 +11°C° 0 mm 1 m/S 752 mmHg 93%
    05:00 +11°C° 0 mm 1 m/S 752 mmHg 93%
    06:00 +13°C° 0 mm 1 m/S 752 mmHg 87%
    07:00 +15°C° 0 mm 1 m/S 752 mmHg 80%
    08:00 +18°C° 0 mm 1 m/S 752 mmHg 74%
    09:00 +19°C° 0 mm 1 m/S 752 mmHg 70%
    10:00 +20°C° 0 mm 1 m/S 752 mmHg 66%
    11:00 +21°C° 0 mm 1 m/S 752 mmHg 62%
    12:00 +22°C° 0 mm 1 m/S 751 mmHg 61%
    13:00 +21°C° 0 mm 2 m/S 751 mmHg 61%
    14:00 +21°C° 0 mm 2 m/S 751 mmHg 61%
    15:00 +21°C° 0 mm 2 m/S 750 mmHg 64%
    16:00 +21°C° 0 mm 2 m/S 750 mmHg 67%
    17:00 +20°C° 0 mm 2 m/S 749 mmHg 69%
    18:00 +19°C° 0 mm 2 m/S 749 mmHg 74%
    19:00 +17°C° 0 mm 2 m/S 749 mmHg 78%
    20:00 +16°C° 0 mm 2 m/S 749 mmHg 82%
    21:00 +15°C° 0 mm 2 m/S 748 mmHg 83%
    22:00 +15°C° 0 mm 2 m/S 748 mmHg 84%
    23:00 +14°C° 0 mm 3 m/S 748 mmHg 85%

    Morgen, 27 August, Dienstag

    Zeit Temperatur Niederschläge Wind Luftdruck Luftfeuchtigkeit
    00:00 +13°C° 0 mm 3 m/S 747 mmHg 86%
    01:00 +13°C° 0 mm 3 m/S 747 mmHg 87%
    02:00 +13°C° 0 mm 3 m/S 747 mmHg 87%
    03:00 +13°C° 0 mm 3 m/S 747 mmHg 88%
    04:00 +14°C° 0 mm 3 m/S 746 mmHg 88%
    05:00 +14°C° 0 mm 4 m/S 746 mmHg 88%
    06:00 +15°C° 0 mm 4 m/S 746 mmHg 87%
    07:00 +17°C° 0 mm 4 m/S 746 mmHg 85%
    08:00 +17°C° 0 mm 5 m/S 745 mmHg 84%
    09:00 +19°C° 0.4 mm 5 m/S 745 mmHg 81%
    10:00 +20°C° 0.4 mm 5 m/S 745 mmHg 78%
    11:00 +20°C° 0.4 mm 5 m/S 745 mmHg 75%
    12:00 +21°C° 0.1 mm 5 m/S 745 mmHg 70%
    13:00 +22°C° 0.1 mm 5 m/S 745 mmHg 66%
    14:00 +22°C° 0.1 mm 6 m/S 745 mmHg 61%
    15:00 +22°C° 0 mm 5 m/S 745 mmHg 63%
    16:00 +21°C° 0 mm 4 m/S 745 mmHg 65%
    17:00 +20°C° 0 mm 3 m/S 745 mmHg 67%
    18:00 +18°C° 0 mm 3 m/S 745 mmHg 70%
    19:00 +17°C° 0 mm 3 m/S 746 mmHg 72%
    20:00 +14°C° 0 mm 3 m/S 746 mmHg 75%
    21:00 +13°C° 0 mm 3 m/S 746 mmHg 79%
    22:00 +13°C° 0 mm 3 m/S 747 mmHg 84%
    23:00 +12°C° 0 mm 3 m/S 747 mmHg 89%

    übermorgen, 28 August, Mittwoch

    Zeit Temperatur Niederschläge Wind Luftdruck Luftfeuchtigkeit
    00:00 +12°C° 0 mm 2 m/S 747 mmHg 90%
    01:00 +10°C° 0 mm 2 m/S 747 mmHg 92%
    02:00 +10°C° 0 mm 2 m/S 747 mmHg 93%
    03:00 +9°C° 0 mm 3 m/S 748 mmHg 93%
    04:00 +9°C° 0 mm 3 m/S 748 mmHg 94%
    05:00 +8°C° 0 mm 3 m/S 748 mmHg 94%
    06:00 +10°C° 0 mm 3 m/S 749 mmHg 85%
    07:00 +11°C° 0 mm 4 m/S 749 mmHg 77%
    08:00 +12°C° 0 mm 4 m/S 749 mmHg 69%
    09:00 +13°C° 0 mm 4 m/S 749 mmHg 66%
    10:00 +14°C° 0 mm 5 m/S 749 mmHg 62%
    11:00 +15°C° 0 mm 5 m/S 749 mmHg 59%
    12:00 +16°C° 0 mm 5 m/S 749 mmHg 56%
    13:00 +16°C° 0 mm 5 m/S 749 mmHg 53%
    14:00 +16°C° 0 mm 5 m/S 749 mmHg 50%
    15:00 +17°C° 0 mm 4 m/S 749 mmHg 53%
    16:00 +16°C° 0 mm 3 m/S 749 mmHg 57%
    17:00 +14°C° 0 mm 3 m/S 749 mmHg 61%
    18:00 +14°C° 0 mm 2 m/S 750 mmHg 64%
    19:00 +12°C° 0 mm 2 m/S 750 mmHg 66%
    20:00 +9°C° 0 mm 2 m/S 750 mmHg 69%
    21:00 +9°C° 0 mm 2 m/S 750 mmHg 72%
    22:00 +8°C° 0 mm 2 m/S 750 mmHg 74%
    23:00 +8°C° 0 mm 2 m/S 750 mmHg 76%

    29 August, Donnerstag

    Zeit Temperatur Niederschläge Wind Luftdruck Luftfeuchtigkeit
    00:00 +7°C° 0 mm 2 m/S 751 mmHg 78%
    01:00 +7°C° 0 mm 2 m/S 751 mmHg 80%
    02:00 +8°C° 0 mm 1 m/S 751 mmHg 82%
    03:00 +7°C° 0 mm 1 m/S 751 mmHg 83%
    04:00 +7°C° 0 mm 1 m/S 751 mmHg 84%
    05:00 +7°C° 0 mm 1 m/S 751 mmHg 86%
    06:00 +9°C° 0 mm 1 m/S 751 mmHg 79%
    07:00 +11°C° 0 mm 1 m/S 751 mmHg 73%
    08:00 +12°C° 0 mm 1 m/S 751 mmHg 67%
    09:00 +14°C° 0 mm 1 m/S 751 mmHg 62%
    10:00 +15°C° 0 mm 2 m/S 751 mmHg 56%
    11:00 +16°C° 0 mm 2 m/S 751 mmHg 51%
    12:00 +17°C° 0 mm 2 m/S 751 mmHg 52%
    13:00 +19°C° 0 mm 1 m/S 750 mmHg 52%
    14:00 +20°C° 0 mm 1 m/S 750 mmHg 53%
    15:00 +20°C° 0 mm 1 m/S 750 mmHg 58%
    16:00 +19°C° 0 mm 1 m/S 750 mmHg 62%
    17:00 +19°C° 0 mm 1 m/S 749 mmHg 67%
    18:00 +18°C° 0 mm 1 m/S 749 mmHg 71%
    19:00 +15°C° 0 mm 1 m/S 749 mmHg 76%
    20:00 +13°C° 0 mm 1 m/S 749 mmHg 80%
    21:00 +13°C° 0 mm 1 m/S 749 mmHg 81%
    22:00 +12°C° 0 mm 2 m/S 749 mmHg 83%
    23:00 +12°C° 0 mm 2 m/S 748 mmHg 85%

    30 August, Freitag

    Zeit Temperatur Niederschläge Wind Luftdruck Luftfeuchtigkeit
    00:00 +12°C° 0 mm 2 m/S 748 mmHg 86%
    01:00 +10°C° 0 mm 2 m/S 748 mmHg 87%
    02:00 +10°C° 0 mm 2 m/S 748 mmHg 89%
    03:00 +10°C° 0 mm 2 m/S 748 mmHg 89%
    04:00 +10°C° 0 mm 2 m/S 748 mmHg 90%
    05:00 +9°C° 0 mm 3 m/S 747 mmHg 91%
    06:00 +11°C° 0 mm 3 m/S 747 mmHg 85%
    07:00 +13°C° 0 mm 3 m/S 747 mmHg 79%
    08:00 +15°C° 0 mm 4 m/S 747 mmHg 73%
    09:00 +17°C° 0 mm 4 m/S 747 mmHg 68%
    10:00 +19°C° 0 mm 4 m/S 747 mmHg 64%
    11:00 +21°C° 0 mm 4 m/S 747 mmHg 59%
    12:00 +21°C° 0 mm 4 m/S 747 mmHg 58%
    13:00 +22°C° 0 mm 3 m/S 747 mmHg 56%
    14:00 +22°C° 0 mm 3 m/S 747 mmHg 55%
    15:00 +21°C° 0 mm 3 m/S 747 mmHg 60%
    16:00 +21°C° 0 mm 2 m/S 747 mmHg 65%
    17:00 +20°C° 0 mm 2 m/S 747 mmHg 70%
    18:00 +18°C° 0 mm 2 m/S 747 mmHg 76%
    19:00 +16°C° 0 mm 2 m/S 747 mmHg 83%
    20:00 +14°C° 0 mm 1 m/S 747 mmHg 90%
    21:00 +14°C° 0 mm 1 m/S 747 mmHg 91%
    22:00 +14°C° 0 mm 1 m/S 747 mmHg 92%
    23:00 +13°C° 0 mm 1 m/S 747 mmHg 94%

    31 August, Samstag

    Zeit Temperatur Niederschläge Wind Luftdruck Luftfeuchtigkeit
    00:00 +13°C° 0 mm 1 m/S 747 mmHg 94%
    01:00 +13°C° 0 mm 1 m/S 747 mmHg 94%
    02:00 +12°C° 0 mm 1 m/S 747 mmHg 95%
    03:00 +12°C° 0 mm 1 m/S 747 mmHg 95%
    04:00 +12°C° 0 mm 1 m/S 747 mmHg 95%
    05:00 +12°C° 0 mm 1 m/S 747 mmHg 95%
    06:00 +14°C° 0 mm 1 m/S 747 mmHg 88%
    07:00 +15°C° 0 mm 1 m/S 747 mmHg 81%
    08:00 +17°C° 0 mm 2 m/S 747 mmHg 74%
    09:00 +19°C° 0 mm 2 m/S 747 mmHg 69%
    10:00 +20°C° 0 mm 2 m/S 747 mmHg 63%
    11:00 +21°C° 0 mm 2 m/S 747 mmHg 58%
    12:00 +22°C° 0 mm 3 m/S 746 mmHg 57%
    13:00 +22°C° 0 mm 3 m/S 746 mmHg 56%
    14:00 +24°C° 0 mm 3 m/S 746 mmHg 55%
    15:00 +22°C° 0 mm 3 m/S 745 mmHg 59%
    16:00 +21°C° 0 mm 2 m/S 745 mmHg 63%
    17:00 +20°C° 0 mm 2 m/S 745 mmHg 68%
    18:00 +19°C° 0 mm 2 m/S 745 mmHg 71%
    19:00 +17°C° 0 mm 2 m/S 745 mmHg 74%
    20:00 +15°C° 0 mm 2 m/S 745 mmHg 77%
    21:00 +15°C° 0 mm 2 m/S 745 mmHg 79%
    22:00 +14°C° 0 mm 2 m/S 745 mmHg 81%
    23:00 +13°C° 0 mm 2 m/S 745 mmHg 83%
    Mehr zeigen